Content
SEND FEEDBACK

Daily
Averages
Monthly
Summary
France

CANNES, FRANCE


Home > Europe > France
Elevation: 30 feet     Latitude: 43 33N     Longitude: 006 57E

WEATHER
 
SELECT A DAY
Number of Records: 104,227;   Date Range: 7/1/96 - 7/11/14
 
SHARE

PRINT THIS DATA

[ ← Previous Day ]
WEATHER ALMANAC - FEBRUARY 24, 2013
[ Next Day → ]
[ °C ]   °F
Weather ElementAverageHighLow
Temperature36.9 °F41 °F (2:30 pm)33.8 °F (6:00 am)
Dewpoint33.2 °F35.6 °F (12:00 pm)30.2 °F (6:00 am)
Humidity86.6 %93 % (8:30 am)81 % (1:30 pm)
Barometer29.61 in29.77 in (10:30 pm)29.50 in (12:30 am)
Wind Speed3.1 mph9.2 mph (8:30 pm)
Weather ElementAverage
Visibility5.6 mi
Wind DirectionENE (76.1 °)

Weather ElementTotal
Precipitation---
Heating Degree Days27.6 (Base 65)
Averaged from 46 records on February 24, 2013
WEATHER CONDITIONS BREAKOUT
WIND DIRECTION BREAKOUT
WEATHER BY HOUR - FEBRUARY 24, 2013
[ °C ]   °F
Local TimeTemperatureDewpointHumidityBarometerVisibilityWind DirectionWind SpeedGust SpeedPrecipitationEventsConditions
12:30 AM35.6 °F32.0 °F87 %29.50 in6.2 miVariable1.2 mphOvercast
1:00 AM35.6 °F32.0 °F87 %29.53 in6.2 miVariable2.3 mphOvercast
1:30 AM35.6 °F32.0 °F87 %29.50 in6.2 miCalmOvercast
2:00 AM35.6 °F32.0 °F87 %29.53 in6.2 miVariable1.2 mphOvercast
2:30 AM35.6 °F32.0 °F87 %29.50 in6.2 miVariable2.3 mphOvercast
3:00 AM35.6 °F32.0 °F87 %29.50 in6.2 miNorth (350°)4.6 mphOvercast
3:30 AM35.6 °F32.0 °F87 %29.50 in6.2 miNNW (330°)3.5 mphOvercast
4:00 AM35.6 °F32.0 °F87 %29.50 in6.2 miVariable3.5 mphOvercast
4:30 AM35.6 °F32.0 °F87 %29.53 in6.2 miVariable1.2 mphOvercast
5:00 AM35.6 °F32.0 °F87 %29.53 in6.2 miCalmRainLight Rain
5:30 AM35.6 °F32.0 °F87 %29.53 in4.3 miVariable1.2 mphRainRain
6:00 AM33.8 °F30.2 °F87 %29.53 in3.1 miVariable2.3 mphRainRain
6:30 AM33.8 °F30.2 °F87 %29.53 inVariable3.5 mphRainRain
7:00 AM33.8 °F30.2 °F87 %29.53 inVariable2.3 mphSnowLight Snow
8:00 AM33.8 °F30.2 °F87 %29.56 in3.1 miVariable2.3 mphRainRain
8:30 AM33.8 °F32.0 °F93 %29.56 in4.3 miVariable2.3 mphOvercast
9:00 AM33.8 °F32.0 °F93 %29.56 in5.6 miVariable2.3 mphOvercast
9:30 AM35.6 °F32.0 °F87 %29.59 in5.0 miVariable2.3 mphOvercast
10:00 AM35.6 °F32.0 °F87 %29.59 in5.6 miVariable3.5 mphOvercast
10:30 AM35.6 °F32.0 °F87 %29.59 in6.2 miNorth (360°)4.6 mphOvercast
11:00 AM35.6 °F32.0 °F87 %29.59 in5.6 miVariable2.3 mphOvercast
11:30 AM37.4 °F33.8 °F87 %29.62 in6.2 miCalmOvercast
12:00 PM39.2 °F35.6 °F87 %29.62 in5.0 miCalmRainLight Rain
12:30 PM39.2 °F35.6 °F87 %29.62 in5.6 miVariable2.3 mphOvercast
1:00 PM39.2 °F35.6 °F87 %29.62 in5.0 miSSW (210°)3.5 mphRainLight Rain
1:30 PM39.2 °F33.8 °F81 %29.62 in3.1 miCalmRainLight Rain
2:00 PM39.2 °F35.6 °F87 %29.62 in4.3 miVariable2.3 mphOvercast
2:30 PM41.0 °F35.6 °F81 %29.62 in6.2 miVariable2.3 mphMostly Cloudy
3:00 PM39.2 °F33.8 °F81 %29.62 in6.2 miNorth (350°)4.6 mphMostly Cloudy
3:30 PM39.2 °F35.6 °F87 %29.62 in6.2 miNorth (360°)3.5 mphOvercast
4:00 PM41.0 °F35.6 °F81 %29.65 in6.2 miVariable3.5 mphRainLight Rain
4:30 PM39.2 °F35.6 °F87 %29.65 in6.2 miVariable2.3 mphOvercast
5:00 PM39.2 °F33.8 °F81 %29.65 in6.2 miNorth (10°)4.6 mphRainLight Rain
5:30 PM39.2 °F33.8 °F81 %29.65 in6.2 miVariable3.5 mphRainLight Rain
6:00 PM37.4 °F33.8 °F87 %29.68 in5.6 miNorth (10°)4.6 mphRainRain
6:30 PM37.4 °F33.8 °F87 %29.68 in5.6 miNorth (10°)5.8 mphRainLight Rain
7:00 PM37.4 °F33.8 °F87 %29.68 in4.3 miNNE (20°)3.5 mphRainRain
7:30 PM37.4 °F33.8 °F87 %29.71 in6.2 miVariable2.3 mphOvercast
8:00 PM37.4 °F35.6 °F93 %29.71 in6.2 miNorth (10°)4.6 mphRainLight Rain
8:30 PM37.4 °F33.8 °F87 %29.74 inNNE (20°)9.2 mphRainRain
9:00 PM37.4 °F33.8 °F87 %29.74 in6.2 miNorth (360°)4.6 mphRainLight Rain
9:30 PM37.4 °F33.8 °F87 %29.74 in6.2 miNorth (360°)5.8 mphRainLight Rain
10:00 PM37.4 °F33.8 °F87 %29.74 in5.6 miNorth (360°)4.6 mphRainRain
10:30 PM39.2 °F35.6 °F87 %29.77 in6.2 miNNE (20°)6.9 mphMostly Cloudy
11:00 PM37.4 °F33.8 °F87 %29.77 in4.3 miNNE (20°)5.8 mphRainRain
11:30 PM37.4 °F33.8 °F87 %29.77 in6.2 miNNW (340°)5.8 mphMostly Cloudy
Hourly data recorded from LFMD, located miles away from Cannes, France







STORIES FROM OUR PARTNERS